Regional Weather Roundup
Issued by NWS Charleston, SC

Current Version | Previous Version | Graphics & Text | Print | Product List | Glossary On
Versions: 1 2 3 4 5 6 7 8 9 10 11 12 13 14 15 16 17 18 19 20 21 22 23 24 25 26 27 28 29 30 31 32 33 34 35 36 37 38 39 40 41 42 43 44 45 46 47 48 49 50
000 ASUS42 KCHS 251031 RWRCHS REGIONAL WEATHER ROUNDUP NATIONAL WEATHER SERVICE CHARLESTON SC 600 AM EDT MON SEP 25 2017 NOTE: "FAIR" INDICATES FEW OR NO CLOUDS BELOW 12,000 FEET WITH NO SIGNIFICANT WEATHER AND/OR OBSTRUCTIONS TO VISIBILITY. NOT ALL STATIONS ARE QUALITY CONTROLLED. USE DATA WITH CAUTION... ESPECIALLY DEWPOINT OBSERVATIONS. SCZ027-030-031-034>040-042>050-251100- ...SOUTHEAST SOUTH CAROLINA... CITY SKY/WX TMP DP RH WIND PRES REMARKS N CHARLESTON CLOUDY 70 66 87 N8 29.90S WATERFRONT PRK N/A 74 67 78 N7 29.74R JOHNS ISLAND FAIR 73 66 78 N6 29.90S PINOPOLIS N/A 73 68 83 N13 29.83F MONCKS CORNER FAIR 72 64 78 N8 29.91S SUMMERVILLE FAIR 68 64 88 N3 29.93R BEAUFORT MCAS CLOUDY 72 70 93 NW7 29.92R BEAUFORT ARPT FAIR 72 68 88 N6 29.91S HILTON HEAD IS NOT AVBL WALTERBORO CLOUDY 68 66 94 N5 29.93S ALLENDALE NOT AVBL ...SOUTHERN MIDLANDS AND PEE DEE... CITY SKY/WX TMP DP RH WIND PRES REMARKS GEORGETOWN CLOUDY 68 68 100 N5 29.91S KINGSTREE FAIR 66 63 88 N5 29.93S ORANGEBURG CLOUDY 70 62 76 N7 29.95R BARNWELL FAIR 70 66 88 N6 29.96R AIKEN FAIR 64 63 94 N3 30.01R MANNING FAIR 68 61 77 MISG 29.93S COLUMBIA MOCLDY 72 62 71 N3 29.97R SUMTER CLOUDY 70 60 70 NE8 29.94R FLORENCE MOCLDY 68 61 78 N9 29.94S MYRTLE BEACH PTCLDY 69 65 86 NE10 29.91R N MYRTLE BEACH MOCLDY 69 66 90 N8 29.90R $$ GAZ063-065-086>088-099>101-113>116-118-119-134>141-150-251100- ...SOUTHEAST GEORGIA... CITY SKY/WX TMP DP RH WIND PRES REMARKS SAVANNAH ARPT PTCLDY 70 68 93 N7 29.93R HUNTER AAF NOT AVBL FORT STEWART PTCLDY 71 67 88 N3 29.91R STATESBORO CLOUDY 71 65 83 N5 29.95S SYLVANIA CLOUDY 68 68 100 CALM 29.96R CLAXTON FAIR 69 69 98 CALM 29.94S ...CSRA...CENTRAL AND FAR SOUTHEAST GEORGIA... CITY SKY/WX TMP DP RH WIND PRES REMARKS THOMSON PTCLDY 65 64 96 CALM 30.04R AUGUSTA-BUSH PTCLDY 70 66 87 CALM 29.96R AUGUSTA-DANIEL PTCLDY 71 66 84 N9 29.98R SWAINSBORO FAIR 72 68 88 N5 29.97R VIDALIA PTCLDY 70 68 94 N5 29.96R EASTMAN FAIR 67 67 100 CALM 29.99S HAZLEHURST FAIR 69 66 90 CALM 29.94S ALMA CLEAR 68 66 93 NW3 29.94S WAYCROSS CLEAR 69 66 90 CALM 29.94S FOG JESUP NOT AVBL BAXLEY FAIR 64 64 100 CALM 29.94S BRUNSWICK CLEAR 70 68 94 NW5 29.92S SAINT SIMONS CLEAR 73 71 93 NW6 29.90R $$ SCZ027-028-034-036>038-045-046-048>050-GAZ119-141-251100- ...LAKE AND SUPPLEMENTAL COASTAL OBSERVATIONS... STATION/POSITION TIME TEMP WIND PRES WAVE SWELL AIR SEA DIR/SP/G HT/PER HT/PER/DIR (UTC) (F) (DEG/KT/KT) (MB) (FT/S) (FT/S/D) WINYAH BAY NOT AVBL LAKE MURRAY 0920 71 CALM / 4 1014.2S ACE BASIN NERRS 0845 72 340/ 1 1012.0 FORT PULASKI 0948 72 80 330/ 7/ 10 1013.3R SAPELO ISLAND 0900 74 CALM 1013.0 $$ ANZ835-935-AMZ111-154-330-350-352-354-370-450-454-472-251100- ...C-MAN AND BUOY OBSERVATIONS... STATION/POSITION TIME TEMP WIND PRES WAVE SWELL AIR SEA DIR/SP/G HT/PER HT/PER/DIR (UTC) (F) (DEG/KT/KT) (MB) (FT/S) (FT/S/D) BUOY 41004 1000 78 30/ 16/ 19 1010.9 BUOY 41008 0950 79 80 10/ 14/ 16 1011.8R 5/12 3/ 90/12 FOLLY BEACH CMAN 1000 74 360/ 13/ 16 1012.9R CAPERS NEARSHORE 0908 73 80 10/ 14/ 17 1011.6 FRIPP NEARSHORE 0908 77 20/ 14/ 17 1017.0F STATION/POSITION TIME TEMP WIND PRES WAVE SWELL AIR SEA DIR/SP/G HT/PER HT/PER/DIR (UTC) (F) (DEG/KT/KT) (MB) (FT/S) (FT/S/D) 5E ST. MARYS GA 1000 81 N/A 5/14 3/120/14 FRYING PAN BUOY 1000 78 30/ 21/ 27 1010.2 BUOY 41025 0950 75 77 30/ 21/ 25 1011.0S 12/14 10/140/14 CAPE LOOKOUT NC 1000 74 20/ 18/ 22 1011.6R BUOY 41002 0950 80 80 10/ 35/ 43 996.9F 23/13 BUOY 41010 1000 20/ 14/ 19 1009.5 ST AUGUSTINE FL 1000 80 81 10/ 16/ 16 1012.1R $$

USA.gov is the U.S. government's official web portal to all federal, state and local government web resources and services.